Regional Weather Roundup
Issued by NWS

Home | Current Version | Previous Version | Graphics & Text | Print | Product List | Glossary On
Versions: 1 2 3 4 5 6 7 8 9 10 11 12 13 14 15 16 17 18 19 20 21 22 23 24 25 26 27 28 29 30 31 32 33 34 35 36 37 38 39 40 41 42 43 44 45 46 47 48 49 50
000
ASUS45 KCYS 281410
RWRWY

WYOMING REGIONAL WEATHER ROUNDUP
NATIONAL WEATHER SERVICE CHEYENNE WY
800 AM MDT SUN AUG 28 2016

NOTE:  "FAIR" INDICATES FEW OR NO CLOUDS BELOW 12,000 FEET
WITH NO SIGNIFICANT WEATHER AND/OR OBSTRUCTIONS TO VISIBILITY.

WYZ001-281500-
YELLOWSTONE NATIONAL PARK

CITY           SKY/WX    TMP DP  RH WIND       PRES   REMARKS
LK YELLOWSTONE   N/A     37  32  82 CALM      30.33R
W YELLOWSTONE  NOT AVBL

$$
WYZ002>013-054>058-071-098>099-281500-
NORTHERN WYOMING

CITY           SKY/WX    TMP DP  RH WIND       PRES   REMARKS
JACKSON        SUNNY     39  28  65 N6        30.27R WCI  35
CODY           FAIR      64  30  27 SW9       30.08R
GREYBULL       FAIR      52  36  54 CALM      30.05R
WORLAND        FAIR      52  39  61 NW5       30.06R
SHERIDAN       FAIR      58  43  57 CALM      30.00R
BUFFALO        FAIR      72  28  19 W9        30.07R
GILLETTE       FAIR      59  39  47 SE5       30.03R
HULETT         FAIR      63  45  51 CALM      30.03S
NEWCASTLE      FAIR      54  43  66 S7        30.07R

$$
WYZ014>020-022>026-101>103-281500-
CENTRAL WYOMING

CITY           SKY/WX    TMP DP  RH WIND       PRES   REMARKS
BIG PINEY      FAIR      41  28  60 CALM      30.31R
PINEDALE       FAIR      39  30  70 NW5       30.31R
DUBOIS         FAIR      50  23  34 NW13      30.26R
LANDER         FAIR      61  32  33 E3        30.15R
RIVERTON       FAIR      60  31  33 SW8       30.15R
CASPER         FAIR      64  35  34 SW14      30.15R
DOUGLAS        FAIR      54  41  61 NW5       30.13R

$$
WYZ021-027>030-104>119-281500-
SOUTHERN WYOMING

CITY           SKY/WX    TMP DP  RH WIND       PRES   REMARKS
EVANSTON       FAIR      50  26  39 S8        30.31R
FORT BRIDGER   FAIR      60  25  26 W8        30.33R
ROCK SPRINGS   FAIR      54  26  34 S3        30.29R
DIXON          FAIR      52  36  54 E5        30.33S
RAWLINS        FAIR      59  34  39 SW8       30.28R
SARATOGA       FAIR      55  32  41 SE10      30.32R
LARAMIE        FAIR      51  33  50 S7        30.31R
CHEYENNE       FAIR      62  34  35 W10       30.22R
TORRINGTON     FAIR      58  46  64 CALM      30.09R
PINE BLUFFS    FAIR      54  41  62 W3        30.16S

$$



USA.gov is the U.S. government's official web portal to all federal, state and local government web resources and services.